Погода в Сусумане

Погода в Сусумане : погода сейчас, прогноз погоды и архив. Всё, что Вы хотите узнать о погоде в Сусумане!

Поиск расширенной информации на нашем сайте:

Другие новости

Новости СМИ2

Главная страница сайта

Новости сайта

03.07.2017

Напоминаем, что на нашем специализированном сайте Метеоцентр.Азия вы можете получить высокодетализированные автоматические прогнозы погоды по пунктам России, СНГ и мира в авиационном формате (включающие направление и скорость ветра, видимость, явления погоды, количество и форму облачности, нижнюю и верхнюю границу облачности).


Погода в Сусумане - сегодня

Время (UTC), дата Ветер
(°,м/с) 
Видим.   Явления Облачность Т
(°С)
Тd
(°С)
f(%) Тe
(°С)
Pmin
(гПа)
dP
(гПа)
Po
(мм)
O2
(г/м3)
Тmin Tmax R s Состояние
почвы
15 22.04.18 020 (С) 20000 м    3/0 верхняя 
[Ci fib]
-13.5 -15.3 86 -13  1020  0.9  702  299           
18 22.04.18 060 (СВ) 20000 м    3/1 1000 м верхняя 
[Sc|Ci fib]
-16.2 -17.4 90 -16  1022.2  1.2  703  303           
00 23.04.18 тихо ()   20000 м    4/3 1000 м верхняя 
[Sc|Ci fib]
-1.6 -12.1 45 -2  1018.6  -0.4  704  286           
03 23.04.18 220 (ЮЗ) 20000 м    6/3 1000 м верхняя 
[Sc|Ci fib]
+1.5 -10.3 41 +1  1016.7  -0.9  703  283           
06 23.04.18 040 (СВ) 20000 м    8/3 1000 м верхняя 
[Sc|Ci fib]
+2.3 -11.5 35 +3  1015.6  -0.9  703  282           
12 23.04.18 110 (В) 20000 м    4/0 верхняя 
[Ci fib]
-8.2 -12.4 72 -8  1018.8  0.2  703  293           
15 23.04.18 120 (ЮВ) 20000 м    ясно 
-13.6 -15.5 86 -14  1020  -0.5  702  299           
18 23.04.18 080 (В) 20000 м    ясно 
-17.4 -18.9 88 -20  1020.3  -0.9  702  303           
00 24.04.18 220 (ЮЗ) 20000 м    ясно 
-3.7 -11.8 53 -3  1011.4  -2.8  699  286           
03 24.04.18 230 (ЮЗ) 20000 м    ясно 
+0.3 -10.5 44 -1  1006.8  -3.1  696  281           
06 24.04.18 250 (З) 20000 м    ясно 
+1.4 -10.7 40 1003.7  -2.6  694  279           
09 24.04.18 210 (ЮЗ) 20000 м    ясно 
+0.6 -11.7 39 1002.2  -1.5  693  280    +1.6       
12 24.04.18 210 (ЮЗ) 20000 м    ясно 
-7.2 -11.7 70 -7  1003.2  -1.3  692  287           
15 24.04.18 040 (СВ) 20000 м    ясно 
-11.2 -13.8 81 -13  1002.8  -1.5  691  291           
18 24.04.18 040 (СВ) 20000 м    9/0 средняя, верхняя 
[Ac trans|Cs]
-10.4 -13.4 79 -13  1000.8  -1.6  690  290           
00 25.04.18 030 (СВ) н/о    н/о 
-5.5 -7.3 87 -5  996  -1.5  688  283           
03 25.04.18 230 (ЮЗ) 2000 м  снег  10/3 1000 м средняя 
[Sc|As op]
-2 -4 86 -4  993.9  -0.9  687  279           
09 25.04.18 230 (ЮЗ) 20000 м  слаб. снег  9/6 1140 м средняя 
[Sc|Ac As]
-4.8 -8.7 74 -8  995.5  1.1  687  283    -1.8     
15 25.04.18 210 (ЮЗ) 10 км  снег  10/5 1000 м средняя 
[Sc|As op]
-7.4 -8.3 93 -10  996.2  -0.5  687  285           
21 25.04.18 190 (Ю) 10 км  слаб. снег  10/5 1000 м средняя 
[Sc|As op]
-6 -7.6 88 -7  997.9  1.7  689  284  -7.6    неравномерный
сухой снег
100% 
03 26.04.18 140 (ЮВ) 20000 м  в посл. час снег  9/4 1000 м средняя, верхняя 
[Sc|Ac trans|Ci fib]
+0.6 -6.1 61 1000.8  2.5  692  279           
06 26.04.18 010 (С) 20000 м  {снег}  9/4 1000 м средняя 
[Sc|Ac As]
+0.1 -9.9 47 +1  1003  1.9  694  280           
12 26.04.18 060 (СВ) 20000 м    3/0 средняя 
[Ac trans]
-11.9 -15.3 76 -12  1011.7  2.2  697  295           
15 26.04.18 050 (СВ) 20000 м    3/0 верхняя 
[Ci fib]
-16.6 -18 89 -20  1014.2  0.8  698  301           
18 26.04.18 тихо ()   20000 м    ясно 
-21 -23.1 83 -21  1016.4  0.6  698  306           
Время (UTC), дата Ветер
(°,м/с) 
Видим.   Явления Облачность Т
(°С)
Тd
(°С)
f(%) Тe
(°С)
Pmin
(гПа)
dP
(гПа)
Po
(мм)
O2
(г/м3)
Тmin Tmax R s Состояние
почвы

Для получения пояснительной информации подведите курсор к названию столбца.

ПОГОДА в Сусумане - архив

Всё, что Вы хотите узнать о погоде в Сусумане - удобно и подробно!

Выберите нужную дату (начиная с 1 января 2015* года) и нажмите кнопку "Найти".
Будут отображены архивные сводки погоды по пункту Сусуман, начиная с указанной даты.


Отображать данные в формате CSV (для использования в таблицах Excel)


Внимание! Наш архив погоды предназначен исключительно для личного некоммерческого использования в познавательных целях. Если Вам необходимы официальные справки о состоянии погоды (для производственных, юридических, коммерческих и т.п. целей), обращайтесь в органы Росгидромета.

*Примечание: данная дата относится к архиву по метеостанциям СССР (Россия, СНГ, Балтия).
Архив по метеостанциям Зарубежной Европы и Азии (кроме Китая) хранится 10 дней, по другим регионам земного шара (Китай, Африка, Америка, Австралия, Океания) - 1 день.

Сусуман - район местоположения метеостанции


Название, широта, долгота, высота метеостанции:
Сусуман 62.8°ш. 148.2°д. 655 м над ур. моря [Российская Федерация]

Дополнительная информация

В oтличие oт бoльшинства пoгoдных сайтoв мы публикуем пoдрoбную метеoинфoрмацию в детальнoм прoфессиoнальнoм фoрмате.

Характеристики температуры и влажнoсти вoздуха измеряются на высoте 2 м в тени вдали oт зданий и деревьев.
Скoрoсть ветра измеряется на высoте 10 м (на урoвне рoста челoвека скoрoсть ветра ниже в 1.5-2 раза). Если метеoстанция нахoдится в гoрoде или в лесу, тo скoрoсть ветра занижена на 2-4 м/с пo сравнению с oткрытым местoм. Скoрoсть ветра над акватoриями крупных рек и oзёр, а также на вершинах хoлмoв на 2-5 м/с выше, чем в oбычных услoвиях.
Атмoсфернoе давление в разных тoчках местнoсти мoжет значительнo oтличаться oт давления на метеoстанции, в зависимoсти oт услoвий рельефа (при пoдъёме на 10 м давление пoнижается примернo на 1 мм рт.ст.).